{"data":{"norad_id":61583,"epoch":"2026-05-24T18:05:19.786272Z","epoch_age_seconds":106758,"freshness":"FRESH","line1":"1 61583U 24187K   26144.75370123  .00002632  00000+0  26582-4 0  9999","line2":"2 61583  53.1600 281.5300 0001030  98.6945 261.4190 15.69699966 92644","mean_motion":15.69699966,"eccentricity":0.000103,"inclination_deg":53.16,"raan_deg":281.53,"arg_perigee_deg":98.6945,"mean_anomaly_deg":261.419,"bstar":2.6582e-5,"rev_number":9264,"period_min":91.737276625513,"perigee_km":359.06146111613,"apogee_km":360.44946696372,"semimajor_km":6737.8924640399,"source":"CELESTRAK","updated_at":"2026-05-25T13:38:19.403679Z"}}